Location: Deerlick Astronomy Village
(33.5614°N, 82.7631°W)
Time: 05:21:36
(UTC-05:00)

Iridium 66 - Visible Passes

Search period start: 27 January 2015 00:00
Search period end: 06 February 2015 00:00
Orbit: 776 x 779 km, 86.4° (Epoch: 26 January)

Date Brightness Start Highest point End Pass type
(mag) Time Alt. Az. Time Alt. Az. Time Alt. Az.
27 Jan 8.1 06:38:12 10° SE 06:42:40 31° E 06:47:15 10° NNE visible
27 Jan 5.9 18:52:08 10° N 18:57:21 75° E 19:02:33 10° S visible
28 Jan 8.9 06:06:22 10° ESE 06:09:20 16° E 06:12:33 10° NE visible
28 Jan 6.5 18:18:56 10° NNE 18:23:44 38° E 18:28:35 10° SSE visible
28 Jan 8.6 20:00:30 10° NW 20:04:13 19° W 20:07:44 10° SW visible
29 Jan 7.6 19:26:05 10° NNW 19:30:52 37° W 19:35:35 10° SSW visible
30 Jan 7.3 06:37:46 10° SSE 06:42:41 46° E 06:47:41 10° NNE visible
30 Jan 6.3 18:52:14 10° N 18:57:26 73° W 19:02:37 10° S visible
31 Jan 8.5 06:05:18 10° SE 06:09:19 24° E 06:13:29 10° NNE visible
31 Jan 6.1 18:18:46 10° N 18:23:54 57° E 18:29:01 10° SSE visible
31 Jan 9.1 20:01:50 10° NW 20:04:12 13° W 20:06:13 10° WSW visible
01 Feb 9.2 05:34:14 10° E 05:36:00 12° E 05:38:06 10° ENE visible
01 Feb 8.4 19:26:38 10° NNW 19:30:52 25° W 19:34:59 10° SW visible
02 Feb 6.4 06:37:35 10° S 06:42:44 70° E 06:47:56 10° N visible
02 Feb 7.1 18:52:28 10° NNW 18:57:29 48° W 19:02:27 10° SSW visible
03 Feb 7.7 06:04:39 10° SSE 06:09:19 35° E 06:14:03 10° NNE visible
04 Feb 8.8 05:32:35 10° SE 05:35:57 18° E 05:39:34 10° NE visible
04 Feb 9.0 19:27:30 10° NW 19:30:51 17° W 19:33:58 10° WSW visible
05 Feb 6.0 06:37:37 10° S 06:42:49 79° W 06:48:03 10° N visible
05 Feb 8.0 18:52:52 10° NNW 18:57:31 32° W 19:02:03 10° SSW visible
